Location: Pachuta
(32.0431°N, 88.8831°W)
Time: 08:18:46
(UTC+00:00)

X-37B - Visible Passes

Search period start: 17 April 2021 00:00
Search period end: 27 April 2021 00:00
Orbit: 380 x 394 km, 45.0° (Epoch: 07 April)

Date Brightness Start Highest point End Pass type
(mag) Time Alt. Az. Time Alt. Az. Time Alt. Az.
17 Apr 4.2 08:49:12 11° NE 08:49:12 11° NE 08:49:23 10° NE visible
17 Apr 3.2 10:22:11 10° NW 10:23:27 12° NNW 10:24:44 10° N visible
18 Apr 3.2 09:25:33 16° N 09:25:33 16° N 09:26:58 10° NNE visible
20 Apr 3.8 09:05:56 11° N 09:05:56 11° N 09:06:15 10° N visible
24 Apr 3.6 10:01:47 10° N 10:03:13 12° NNE 10:04:38 10° NE visible
25 Apr 2.7 10:39:06 10° NW 10:41:55 28° NNE 10:44:42 10° E visible
26 Apr 3.4 09:41:05 10° NNW 09:43:22 18° NNE 09:45:37 10° ENE visible
